TimeEDT,TemperatureF,Dew PointF,Humidity,Sea Level PressureIn,VisibilityMPH,Wind Direction,Wind SpeedMPH,Gust SpeedMPH,PrecipitationIn,Events,Conditions,WindDirDegrees,DateUTC
12:53 AM,51.1,48.9,92,29.96,10.0,Calm,Calm,-,N/A,,Clear,0,2012-10-02 04:53:00
1:53 AM,52.0,50.0,93,29.96,10.0,Calm,Calm,-,N/A,,Clear,0,2012-10-02 05:53:00
2:53 AM,51.8,50.0,94,29.95,10.0,Calm,Calm,-,N/A,,Clear,0,2012-10-02 06:53:00
3:53 AM,52.0,50.0,93,29.97,10.0,Calm,Calm,-,N/A,,Clear,0,2012-10-02 07:53:00
4:53 AM,51.1,48.9,92,29.99,10.0,Calm,Calm,-,N/A,,Partly Cloudy,0,2012-10-02 08:53:00
5:53 AM,54.0,52.0,93,29.99,10.0,North,3.5,-,N/A,,Overcast,350,2012-10-02 09:53:00
6:53 AM,54.0,52.0,93,30.02,10.0,Calm,Calm,-,N/A,,Scattered Clouds,0,2012-10-02 10:53:00
7:53 AM,57.9,55.0,90,30.03,10.0,SW,4.6,-,N/A,,Partly Cloudy,220,2012-10-02 11:53:00
8:53 AM,62.1,55.0,78,30.05,10.0,SW,4.6,-,N/A,,Clear,220,2012-10-02 12:53:00
9:53 AM,68.0,55.9,65,30.05,10.0,South,6.9,-,N/A,,Clear,190,2012-10-02 13:53:00
10:53 AM,69.1,54.0,58,30.05,10.0,West,5.8,-,N/A,,Clear,260,2012-10-02 14:53:00
11:53 AM,71.1,54.0,55,30.04,10.0,SSW,10.4,-,N/A,,Clear,210,2012-10-02 15:53:00
12:53 PM,72.0,54.0,53,30.02,10.0,SSW,4.6,-,N/A,,Mostly Cloudy,200,2012-10-02 16:53:00
1:53 PM,71.1,54.0,55,30.02,10.0,SSW,9.2,-,N/A,,Mostly Cloudy,200,2012-10-02 17:53:00
2:53 PM,69.1,54.0,58,30.04,10.0,SW,9.2,-,0.00,,Overcast,220,2012-10-02 18:53:00
3:53 PM,64.0,59.0,84,30.05,3.0,Calm,Calm,-,0.06,Rain,Light Rain,0,2012-10-02 19:53:00
4:53 PM,63.0,57.9,84,30.04,10.0,Calm,Calm,-,0.02,Rain,Light Rain,0,2012-10-02 20:53:00
5:53 PM,62.1,57.9,86,30.03,6.0,Calm,Calm,-,0.03,Rain,Light Rain,0,2012-10-02 21:53:00
6:53 PM,63.0,57.9,84,30.02,9.0,Calm,Calm,-,0.03,Rain,Light Rain,0,2012-10-02 22:53:00
7:53 PM,62.1,59.0,90,30.03,8.0,Calm,Calm,-,0.00,,Mostly Cloudy,0,2012-10-02 23:53:00
8:53 PM,62.6,60.8,94,30.04,4.0,Calm,Calm,-,N/A,Rain,Light Rain,0,2012-10-03 00:53:00
9:09 PM,60.8,59.0,94,30.05,6.0,North,4.6,-,0.00,,Mostly Cloudy,10,2012-10-03 01:09:00
9:53 PM,61.0,59.0,93,30.04,5.0,NNE,3.5,-,0.00,Rain,Light Rain,30,2012-10-03 01:53:00
10:53 PM,61.0,57.9,90,30.05,8.0,East,3.5,-,0.00,,Overcast,80,2012-10-03 02:53:00
11:53 PM,61.0,59.0,93,30.04,7.0,Calm,Calm,-,N/A,,Overcast,0,2012-10-03 03:53:00